Flag for U.S.A. Weather past 2 weeks in Elizabeth, New Jersey, U.S.A.

Now
62 °F

Scattered clouds.


Feels Like: 62 °F
Forecast: 47 / 63 °F
Wind: 13 mph from West

Location: Newark International Airport

Current Time: Apr 21, 2015 at 8:18:58 PM

Latest Report: Apr 21, 2015 at 7:51 PM


Visibility: 10 mi

Pressure: 29.74 "Hg

Humidity: 24%

Dew point: 25 °F

Location of ElizabethLocation

Historic Weather in Elizabeth — Graph

°F

Elizabeth temperature yesterday

Maximum temperature yesterday: 59 °F (at 5:58 PM)
Minimum temperature yesterday: 48 °F (at 12:51 AM)
Average temperature yesterday: 54 °F

Past Weeks' High & Low Weather Summary

 TemperatureHumidityPressure
High81 °F (Apr 18, 5:51 PM)100% (Apr 20, 10:51 PM)30.48 "Hg (Apr 20, 10:51 PM)
Low38 °F (Apr 9, 5:51 AM)10% (Apr 15, 5:51 PM)29.56 "Hg (Apr 21, 3:51 AM)
Average55 °F58%30.11 "Hg
* Reported Apr 6 6:51 PM — Apr 21 6:51 PM, Elizabeth, Weather by CustomWeather, © 2015

Note: Actual official high and low records may vary slightly from our data, if they occured in-between our weather recording intervals... More about our weather records

Advertising

Elizabeth weather history for previous 24 hours

 ConditionsComfort  
Time TempWeatherWind HumidityBarometerVisibility
6:51 PM
Tue, Apr 21
63 °FScattered clouds.17 mph23%29.71 "Hg10 mi
5:51 PM65 °FScattered clouds.21 mph23%29.67 "Hg10 mi
4:51 PM67 °FScattered clouds.20 mph23%29.65 "Hg10 mi
3:51 PM67 °FScattered clouds.16 mph24%29.65 "Hg10 mi
2:51 PM66 °FScattered clouds.21 mph25%29.65 "Hg10 mi
1:51 PM66 °FPassing clouds.15 mph29%29.66 "Hg10 mi
12:51 PM65 °FScattered clouds.23 mph34%29.66 "Hg10 mi
11:51 AM65 °FScattered clouds.22 mph39%29.67 "Hg10 mi
10:51 AM63 °FScattered clouds.15 mph47%29.67 "Hg10 mi
9:51 AM59 °FScattered clouds.14 mph67%29.65 "Hg10 mi
8:51 AM57 °FRain. Fog.12 mph87%29.64 "Hg5 mi
7:57 AM57 °FMostly cloudy.13 mph94%29.61 "Hg7 mi
6:51 AM56 °FFog.7 mph93%29.59 "Hg5 mi
5:51 AM56 °FLight rain. Mostly cloudy.No wind93%29.57 "Hg7 mi
4:51 AM56 °FLight rain. Mostly cloudy.3 mph93%29.56 "Hg10 mi
3:51 AM56 °FLight rain. Mostly cloudy.6 mph100%29.56 "Hg10 mi
2:51 AM55 °FRain. Fog.9 mph96%29.57 "Hg2 mi
1:51 AM53 °FFog.No wind100%29.57 "Hg2 mi
12:51 AM53 °FThunderstorms. Fog.7 mph96%29.58 "Hg1 mi
11:51 PM
Mon, Apr 20
53 °FThunderstorms. Fog.5 mph100%29.58 "Hg1 mi
10:51 PM53 °FFog.6 mph100%29.60 "Hg0 mi
9:51 PM53 °FFog.6 mph96%29.62 "Hg0 mi
8:56 PM55 °FFog.5 mph94%29.62 "Hg0 mi
Weather by CustomWeather, © 2015

See weather overviewHow to use our weather pages